LEMUR-2-ZACHARY (42845 NORAD) Tracking and Keplerian Element Data

This shows tracking and keplerian element data for the satellite.

Feedback or suggestion? Click here.




ElementValue
Catalog42845
NameLEMUR-2-ZACHARY
Epoch Orbit22782
Epoch Day261.91283484
Epoch Year2021
RAAN129.16
Inclination97.4561
Eccentricity0.0012595
Argument of Perigee179.4986
Mean Anonmoly180.6249
Mean Motion14.93195561
Decay Rate8.67E-06
L11 42845U 17042W 21261.91283484 .00000867 00000-0 87964-4 0 9997
L22 42845 97.4561 129.1600 0012595 179.4986 180.6249 14.93195561227827

Live tracking and technical data element details for LEMUR-2-ZACHARY (NORAD 42845). LEMUR-2-ZACHARY can be tracked NOW for your location showing map with azimuth and elevation plus other details from your city location.

Track the satellite on the map from your city or location and see movement details for azimuth, elevation, latitude, longitude, range, height, and movement on the map or in text.







IsCatalogInMostPopularTable: catalog: 42845, numindb: 528
Update: records affected: 1



GetName: 42845 LEMUR-2-ZACHARY

Hit Count: updated at: Sun, 26 Sep 2021 00:58:15 GMT